[[{"header":{"parameterUnit":"m.s-1","parameterCategory":1,"la1":30.2991,"la2":30.254,"lo1":-89.0895,"lo2":-89.0444,"dy":0.0017,"dx":0.0017,"nx":28,"ny":28,"refTime":"2025-11-22T03:00:00:Z","depth":0,"parameterNumber":2,"parameterNumberName":"U-component_of_WINDS"},"data":[0,0,0,0,0,0,0,0,0,0,0,0,0,0,0,0,0,0,0,0,0,0,0,0,0,0,0,0,0,0,0,0,0,0,0,0,0,0,0,0,0,0,0,0,0,0,0,0,0,0,0,0,0,0,0,0,0,0,0.6187,0.6188,0,0.6284,0.6285,0.6286,0.6308,0.6307,0.6306,0.6306,0.641,0.6413,0.6417,0,0,0,0,0,0,0,0,0,0,0,0,0,0.6027,0.603,0.6187,0.6188,0.619,0.6284,0.6285,0.6287,0.6308,0.6307,0.6306,0.6305,0.6409,0.6413,0.6417,0,0,0,0,0,0,0,0,0,0,0,0,0,0.6108,0.6031,0.6187,0.6212,0.6215,0.6284,0.6285,0.6287,0.6308,0.6307,0.6306,0.6305,0.6407,0.6412,0.6418,0.647,0,0,0.6433,0.6435,0,0,0,0,0,0,0,0,0.6103,0.6114,0.6207,0.621,0.6214,0.6283,0.6267,0.6349,0.6308,0.6273,0.6306,0.6305,0.6369,0.6377,0.6398,0.6475,0.648,0.6434,0.6437,0.6439,0.644,0,0,0,0,0,0,0,0.6098,0.611,0.6226,0.6208,0.6212,0.622,0.623,0.6283,0.6326,0.6276,0.6278,0.6289,0.6371,0.6393,0.64,0.6481,0.6434,0.6438,0.6441,0.6443,0.661,0.6612,0,0,0,0,0,0,0.6087,0.6105,0.6223,0.6229,0.6155,0.6224,0.6235,0.6262,0.6325,0.6334,0.6289,0.6289,0.6384,0.6394,0.6404,0.6472,0.6439,0.6444,0.6447,0.6609,0.6611,0.6612,0,0,0,0,0,0,0.6083,0.6097,0.6219,0.6167,0.6183,0.6227,0.6257,0.6264,0.6286,0.6335,0.6344,0.6304,0.6384,0.6397,0.6454,0.6476,0.6446,0.6451,0.6607,0.6609,0.6611,0.6607,0,0,0,0,0,0,0.6079,0.6096,0.6115,0.6167,0.6186,0.6265,0.6258,0.6267,0.6294,0.6295,0.6351,0.6359,0.6384,0.6446,0.6459,0.6482,0.6455,0.6606,0.6608,0.6611,0.6605,0.6609,0.6611,0,0,0,0,0,0.6073,0.611,0.6115,0.6129,0.621,0.6266,0.6277,0.6303,0.6296,0.6317,0.6349,0.6357,0.6471,0.6452,0.6467,0.6492,0.6604,0.6608,0.661,0.6604,0.6608,0.6611,0,0,0,0,0,0,0.606,0.6117,0.6124,0.6179,0.6217,0.627,0.6296,0.6306,0.6349,0.6348,0.6381,0.6393,0.6449,0.6476,0.6454,0.6548,0.6538,0.6544,0.6528,0.6532,0.6535,0.6528,0.6459,0,0,0,0,0,0.6063,0.6102,0.6151,0.6195,0.6213,0.6251,0.6277,0.6294,0.6336,0.6353,0.6389,0.6431,0.6476,0.6506,0.655,0.6609,0.6623,0.6634,0.6637,0.6639,0.6645,0.6681,0.6687,0.6622,0.6622,0.6622,0,0,0.6071,0.6107,0.613,0.6193,0.6225,0.6267,0.6265,0.6309,0.6341,0.636,0.6416,0.6444,0.6494,0.6553,0.6581,0.6577,0.6666,0.6643,0.6645,0.6649,0.6685,0.6691,0.6696,0.6624,0.6624,0.6623,0,0,0.6106,0.6136,0.6177,0.6209,0.6257,0.6282,0.6292,0.6344,0.6363,0.6419,0.6435,0.6475,0.6552,0.6587,0.6615,0.6666,0.6677,0.668,0.6696,0.6731,0.6736,0.6741,0.6761,0.6768,0.6685,0.6685,0.6685,0,0.611,0.6171,0.6197,0.6241,0.6269,0.6287,0.6331,0.6361,0.6422,0.6442,0.6437,0.6535,0.657,0.6639,0.6651,0.6672,0.6687,0.6674,0.6733,0.6738,0.6743,0.6763,0.677,0.6685,0.6685,0.6685,0.6685,0,0.6175,0.6218,0.6245,0.6302,0.6334,0.6377,0.6412,0.6441,0.6456,0.6483,0.6542,0.6584,0.6639,0.6656,0.6671,0.6728,0.6725,0.6726,0.6717,0.6748,0.6768,0.6776,0.6685,0.6685,0.6685,0.6685,0,0,0.6204,0.6276,0.6286,0.6313,0.6368,0.6403,0.6448,0.65,0.6526,0.6567,0.6608,0.6673,0.6675,0.6707,0.6727,0.6757,0.6798,0.6755,0.6757,0.6763,0.6867,0.6867,0.6875,0.6805,0.6807,0.6808,0.6863,0,0.6248,0.6327,0.6352,0.6419,0.6461,0.648,0.652,0.6559,0.6586,0.6627,0.6657,0.6704,0.6702,0.6721,0.6752,0.6786,0.682,0.6783,0.6846,0.6848,0.6834,0.6884,0.6884,0.6934,0.6871,0.6872,0.6873,0,0.6308,0.635,0.6421,0.6473,0.6492,0.6526,0.6578,0.6615,0.6662,0.668,0.6716,0.6734,0.6785,0.6772,0.6844,0.6819,0.6846,0.6867,0.687,0.6878,0.6863,0.6896,0.695,0.6958,0.6885,0.6884,0.6883,0,0.6325,0.6399,0.6452,0.6474,0.6536,0.656,0.6587,0.6633,0.6663,0.6708,0.6729,0.678,0.6808,0.6849,0.6881,0.6868,0.6952,0.6941,0.697,0.697,0.6988,0.6986,0.7049,0.7003,0.7003,0.7002,0.7002,0,0.6371,0.6415,0.646,0.6493,0.6543,0.6573,0.6623,0.6651,0.6692,0.6732,0.6752,0.679,0.6829,0.6873,0.6899,0.6957,0.6969,0.6987,0.6994,0.6986,0.6984,0.7005,0.7004,0.7005,0.7004,0.7004,0.7003,0,0.6399,0.643,0.6489,0.6543,0.6557,0.6592,0.6639,0.6673,0.6701,0.6752,0.6766,0.681,0.6864,0.6899,0.6968,0.6985,0.7049,0.7054,0.7032,0.7036,0.7064,0.7061,0.7144,0.7158,0.71,0.7101,0.7101,0,0.6427,0.646,0.6517,0.6545,0.6572,0.6616,0.6647,0.6679,0.6711,0.6768,0.6796,0.685,0.6895,0.698,0.702,0.7073,0.7081,0.7106,0.7089,0.7081,0.7084,0.7082,0.7087,0.7109,0.711,0.711,0.711,0,0.6474,0.6489,0.6531,0.6581,0.6617,0.6658,0.6699,0.6721,0.6761,0.6796,0.685,0.6885,0.6955,0.701,0.7067,0.7098,0.7112,0.7115,0.7125,0.7119,0.7106,0.7115,0.7042,0.7113,0.7113,0.7113,0.7113,0.7113,0.6504,0.6536,0.6581,0.6629,0.6663,0.6702,0.6736,0.6769,0.6813,0.6872,0.6889,0.6946,0.6994,0.7072,0.7104,0.7151,0.7149,0.7163,0.7167,0.717,0.7171,0.7097,0.7162,0.7162,0.7162,0.7162,0.7162,0,0.6554,0.6584,0.6628,0.6685,0.6723,0.6731,0.6778,0.681,0.6859,0.6903,0.6947,0.701,0.7064,0.7109,0.7165,0.7194,0.7202,0.7208,0.7207,0.7215,0.7169,0.7156,0.7201,0.7201,0.7201,0.7201,0.7201,0.7201,0.6585,0.6639,0.666,0.6733,0.6763,0.6818,0.6844,0.6881,0.6916,0.6985,0.7029,0.7057,0.7103,0.7163,0.7213,0.7225,0.7246,0.7251,0.7265,0.7222,0.7217,0.7213,0.7201,0.7255,0.7255,0.7307,0.7307,0.7308]},{"header":{"parameterUnit":"m.s-1","parameterCategory":1,"la1":30.2991,"la2":30.254,"lo1":-89.0895,"lo2":-89.0444,"dy":0.0017,"dx":0.0017,"nx":28,"ny":28,"refTime":"2025-11-22T03:00:00:Z","depth":0,"parameterNumber":3,"parameterNumberName":"V-component_of_WINDS"},"data":[0,0,0,0,0,0,0,0,0,0,0,0,0,0,0,0,0,0,0,0,0,0,0,0,0,0,0,0,0,0,0,0,0,0,0,0,0,0,0,0,0,0,0,0,0,0,0,0,0,0,0,0,0,0,0,0,0,0,-1.2358,-1.2357,0,-1.2259,-1.2258,-1.2257,-1.2221,-1.2221,-1.2222,-1.2222,-1.2115,-1.2112,-1.2109,0,0,0,0,0,0,0,0,0,0,0,0,0,-1.251,-1.2508,-1.2358,-1.2357,-1.2356,-1.226,-1.2258,-1.2257,-1.2221,-1.2221,-1.2222,-1.2222,-1.2116,-1.2113,-1.2109,0,0,0,0,0,0,0,0,0,0,0,0,0,-1.2431,-1.2507,-1.2358,-1.2326,-1.2322,-1.226,-1.2258,-1.2257,-1.2221,-1.2221,-1.2222,-1.2222,-1.2118,-1.2113,-1.2108,-1.2068,0,0,-1.2094,-1.2092,0,0,0,0,0,0,0,0,-1.2436,-1.2425,-1.2332,-1.2328,-1.2324,-1.2253,-1.2273,-1.2193,-1.2221,-1.2259,-1.2222,-1.2223,-1.216,-1.2152,-1.2132,-1.2063,-1.2059,-1.2093,-1.209,-1.2088,-1.2087,0,0,0,0,0,0,0,-1.2441,-1.2429,-1.2319,-1.2331,-1.2326,-1.2315,-1.2305,-1.2258,-1.2208,-1.2256,-1.2253,-1.2242,-1.2158,-1.2137,-1.2129,-1.2057,-1.2093,-1.2089,-1.2086,-1.2084,-1.1951,-1.1951,0,0,0,0,0,0,-1.2453,-1.2434,-1.2322,-1.2316,-1.2382,-1.2312,-1.23,-1.2275,-1.2208,-1.2199,-1.2242,-1.2241,-1.2145,-1.2135,-1.2126,-1.2075,-1.2088,-1.2084,-1.2081,-1.1952,-1.1951,-1.195,0,0,0,0,0,0,-1.2456,-1.2443,-1.2326,-1.2374,-1.2359,-1.2309,-1.2281,-1.2273,-1.2252,-1.2198,-1.2188,-1.223,-1.2145,-1.2132,-1.2083,-1.207,-1.2082,-1.2077,-1.1953,-1.1952,-1.1951,-1.1973,0,0,0,0,0,0,-1.2461,-1.2445,-1.243,-1.2374,-1.2356,-1.2287,-1.2281,-1.2271,-1.2245,-1.2242,-1.2184,-1.2175,-1.2144,-1.2091,-1.2079,-1.2064,-1.2074,-1.1954,-1.1952,-1.1951,-1.1973,-1.1972,-1.1972,0,0,0,0,0,-1.2466,-1.2439,-1.2429,-1.2416,-1.2337,-1.2286,-1.2276,-1.2243,-1.2244,-1.2228,-1.2193,-1.2176,-1.2074,-1.2086,-1.2072,-1.2056,-1.1954,-1.1953,-1.1951,-1.1973,-1.1973,-1.1972,0,0,0,0,0,0,-1.2491,-1.2431,-1.242,-1.2374,-1.2336,-1.228,-1.2259,-1.2244,-1.2203,-1.2202,-1.2162,-1.2149,-1.2103,-1.2075,-1.2089,-1.2014,-1.2013,-1.2009,-1.2034,-1.2034,-1.2033,-1.204,-1.207,0,0,0,0,0,-1.2492,-1.2457,-1.2406,-1.237,-1.2352,-1.2309,-1.2285,-1.2264,-1.2222,-1.2205,-1.2167,-1.2126,-1.2084,-1.2057,-1.2016,-1.1969,-1.1955,-1.1951,-1.1951,-1.1951,-1.1947,-1.192,-1.1917,-1.1945,-1.1945,-1.1945,0,0,-1.2492,-1.2454,-1.2435,-1.2374,-1.2342,-1.2306,-1.2295,-1.2257,-1.2229,-1.2199,-1.2151,-1.2122,-1.2072,-1.2025,-1.2001,-1.1999,-1.1937,-1.1949,-1.1949,-1.1945,-1.1918,-1.1915,-1.1913,-1.1944,-1.1944,-1.1945,0,0,-1.2473,-1.2442,-1.2409,-1.2378,-1.2331,-1.2303,-1.2295,-1.2242,-1.2222,-1.2174,-1.2151,-1.2116,-1.2046,-1.2012,-1.1986,-1.1957,-1.1939,-1.1944,-1.1942,-1.1916,-1.1914,-1.1912,-1.19,-1.1897,-1.1941,-1.1941,-1.1941,0,-1.2478,-1.2424,-1.2393,-1.2357,-1.233,-1.2304,-1.227,-1.224,-1.2181,-1.2163,-1.2162,-1.2074,-1.2039,-1.1983,-1.1976,-1.1956,-1.1945,-1.195,-1.1917,-1.1914,-1.1912,-1.1901,-1.1897,-1.1942,-1.1942,-1.1942,-1.1942,0,-1.2433,-1.2396,-1.2374,-1.2321,-1.2292,-1.2257,-1.2219,-1.2194,-1.2175,-1.2147,-1.2099,-1.2056,-1.2006,-1.1992,-1.1972,-1.1933,-1.1933,-1.1925,-1.1923,-1.1911,-1.1899,-1.1895,-1.1943,-1.1943,-1.1942,-1.1942,0,0,-1.2425,-1.2357,-1.2349,-1.2325,-1.2272,-1.2241,-1.2205,-1.2158,-1.2137,-1.2097,-1.2065,-1.2007,-1.2,-1.197,-1.1947,-1.1924,-1.1903,-1.1919,-1.1917,-1.1917,-1.1857,-1.1862,-1.1858,-1.1893,-1.1892,-1.1891,-1.1861,0,-1.2398,-1.2334,-1.2306,-1.2253,-1.2218,-1.2193,-1.2161,-1.2125,-1.2098,-1.2063,-1.2033,-1.1992,-1.1986,-1.1968,-1.1945,-1.1911,-1.1891,-1.1913,-1.186,-1.1859,-1.1872,-1.1852,-1.1857,-1.1831,-1.1856,-1.1855,-1.1855,0,-1.2358,-1.2321,-1.2266,-1.2218,-1.2203,-1.2175,-1.213,-1.2098,-1.2055,-1.2037,-1.2006,-1.1984,-1.1943,-1.1946,-1.1888,-1.1904,-1.1881,-1.1861,-1.1859,-1.1852,-1.1855,-1.1843,-1.1821,-1.1817,-1.1848,-1.1848,-1.1849,0,-1.2357,-1.2294,-1.2252,-1.2232,-1.2176,-1.2157,-1.2132,-1.209,-1.2064,-1.2025,-1.2008,-1.1964,-1.1939,-1.1905,-1.1871,-1.1876,-1.1817,-1.1816,-1.18,-1.18,-1.1787,-1.1788,-1.176,-1.1774,-1.1774,-1.1774,-1.1775,0,-1.233,-1.2297,-1.2252,-1.2226,-1.2188,-1.2156,-1.2119,-1.2092,-1.2055,-1.2023,-1.1999,-1.1969,-1.1927,-1.1892,-1.1865,-1.1822,-1.1811,-1.1794,-1.1787,-1.1795,-1.1797,-1.1778,-1.1779,-1.1773,-1.1774,-1.1774,-1.1774,0,-1.2321,-1.229,-1.2243,-1.2195,-1.2182,-1.2156,-1.2113,-1.2087,-1.206,-1.202,-1.2008,-1.1965,-1.1922,-1.1886,-1.1829,-1.1811,-1.1766,-1.1758,-1.178,-1.1776,-1.1761,-1.1763,-1.1719,-1.1711,-1.1733,-1.1732,-1.1732,0,-1.2305,-1.228,-1.2229,-1.2207,-1.2183,-1.2147,-1.2122,-1.2089,-1.2063,-1.2014,-1.1993,-1.1949,-1.1912,-1.1844,-1.1807,-1.1763,-1.1753,-1.1741,-1.1746,-1.1756,-1.1752,-1.1753,-1.175,-1.174,-1.174,-1.174,-1.174,0,-1.228,-1.2266,-1.2231,-1.2191,-1.2162,-1.2128,-1.2093,-1.2076,-1.2037,-1.2008,-1.1966,-1.1937,-1.188,-1.1836,-1.1789,-1.1761,-1.1743,-1.1739,-1.1733,-1.174,-1.1754,-1.1745,-1.1778,-1.174,-1.174,-1.174,-1.174,-1.174,-1.2266,-1.2242,-1.2204,-1.2165,-1.2137,-1.2105,-1.2079,-1.205,-1.2014,-1.1966,-1.1949,-1.1905,-1.1863,-1.1799,-1.1771,-1.1735,-1.1733,-1.1724,-1.1721,-1.1719,-1.172,-1.1762,-1.1726,-1.1726,-1.1726,-1.1726,-1.1726,0,-1.2238,-1.2213,-1.2178,-1.2132,-1.2102,-1.2092,-1.2053,-1.2028,-1.199,-1.1954,-1.1919,-1.1869,-1.1827,-1.1788,-1.1743,-1.1722,-1.1712,-1.1711,-1.1711,-1.1705,-1.1725,-1.1735,-1.1719,-1.1719,-1.1719,-1.1719,-1.1719,-1.1719,-1.222,-1.218,-1.2162,-1.2106,-1.2081,-1.2039,-1.2018,-1.1988,-1.196,-1.1907,-1.1872,-1.1848,-1.181,-1.1763,-1.1723,-1.1712,-1.1696,-1.1697,-1.1684,-1.1703,-1.1704,-1.1705,-1.1713,-1.1694,-1.1694,-1.1667,-1.1666,-1.1666]}]]